Flag for France Weather past 2 weeks in Besançon, France

48 °F


Feels Like: 48 °F
Forecast: 47 / 64 °F
Wind: 2 mph from North

Location: Dole Tavaux

Current Time: Oct 10, 2015 at 6:32:40 AM

Latest Report: Oct 10, 2015 at 6:00 AM

Visibility: 0 mi

Pressure: 29.98 "Hg

Humidity: 100%

Dew point: 48 °F

Location of BesançonLocation

Historic Weather in Besançon — Graph


Besançon temperature yesterday

Maximum temperature yesterday: 64 °F (at 5:30 PM)
Minimum temperature yesterday: 45 °F (at 7:30 AM)
Average temperature yesterday: 53 °F

Past Weeks' High & Low Weather Summary

High70 °F (Oct 5, 1:00 PM)100% (Sep 25, 5:00 AM)30.36 "Hg (Sep 25, 5:00 AM)
Low43 °F (Sep 30, 7:00 AM)40% (Sep 28, 3:00 PM)29.68 "Hg (Oct 6, 7:30 AM)
Average57 °F74%30.10 "Hg
* Reported Sep 25 5:00 AM — Oct 10 5:00 AM, Besançon, Weather by CustomWeather, © 2015

Note: Actual official high and low records may vary slightly from our data, if they occured in-between our weather recording intervals... More about our weather records


Besançon weather history for previous 24 hours

Time TempWeatherWind HumidityBarometerVisibility
5:00 AM
Sat, Oct 10
48 °FFog.5 mph100%29.98 "Hg1 mi
4:30 AM48 °FFog.5 mph94%29.98 "Hg1 mi
4:00 AM46 °FPassing clouds.6 mph100%29.98 "Hg4 mi
3:30 AM46 °FClear.6 mph100%29.98 "Hg4 mi
3:00 AM48 °FClear.6 mph94%29.98 "Hg10 mi
2:30 AM48 °FClear.6 mph94%30.01 "Hg10 mi
2:00 AM48 °FClear.6 mph100%30.01 "Hg10 mi
1:30 AM48 °FClear.7 mph100%30.01 "Hg10 mi
1:00 AM48 °FClear.5 mph100%30.01 "Hg10 mi
12:30 AM50 °FClear.5 mph94%30.01 "Hg10 mi
12:00 AM50 °FClear.6 mph94%30.01 "Hg10 mi
11:00 PM
Fri, Oct 9
52 °FClear.6 mph94%30.01 "Hg10 mi
10:30 PM52 °FClear.8 mph94%30.01 "Hg10 mi
10:00 PM54 °FClear.7 mph88%30.01 "Hg10 mi
9:30 PM54 °FClear.7 mph88%30.01 "Hg10 mi
9:00 PM55 °FPassing clouds.8 mph82%30.01 "HgN/A
8:30 PM55 °FPassing clouds.7 mph82%30.04 "HgN/A
8:00 PM55 °FSunny.8 mph82%30.04 "Hg10 mi
7:30 PM57 °FSunny.6 mph77%30.04 "Hg10 mi
7:00 PM59 °FSunny.6 mph72%30.01 "Hg10 mi
6:30 PM61 °FPassing clouds.7 mph68%30.01 "HgN/A
6:00 PM63 °FPassing clouds.7 mph64%30.04 "HgN/A
5:30 PM64 °FPassing clouds.9 mph60%30.04 "HgN/A
4:30 PM63 °FPassing clouds.9 mph68%30.04 "HgN/A
4:00 PM63 °FScattered clouds.8 mph64%30.04 "HgN/A
3:30 PM63 °FScattered clouds.N/A68%30.04 "HgN/A
3:00 PM63 °FPassing clouds.8 mph68%30.04 "HgN/A
2:30 PM63 °FScattered clouds.8 mph64%30.04 "HgN/A
2:00 PM61 °FPartly sunny.6 mph72%30.07 "HgN/A
1:30 PM61 °FScattered clouds.7 mph72%30.07 "HgN/A
1:00 PM59 °FPassing clouds.8 mph77%30.07 "HgN/A
12:30 PM57 °FPassing clouds.6 mph82%30.07 "HgN/A
12:00 PM59 °FPassing clouds.12 mph77%30.07 "HgN/A
11:30 AM57 °FPassing clouds.10 mph77%30.09 "HgN/A
11:00 AM54 °FPassing clouds.6 mph94%30.09 "HgN/A
10:30 AM52 °FScattered clouds.7 mph94%30.09 "HgN/A
10:00 AM48 °FLow clouds.7 mph100%30.09 "HgN/A
9:30 AM46 °FFog.7 mph100%30.09 "Hg1 mi
9:00 AM46 °FLow clouds.6 mph100%30.09 "Hg4 mi
8:30 AM45 °FFog.6 mph100%30.09 "Hg2 mi
8:00 AM45 °FClear.7 mph100%30.09 "Hg10 mi
7:30 AM45 °FClear.7 mph100%30.09 "Hg10 mi
7:00 AM46 °FClear.7 mph93%30.09 "Hg10 mi
6:30 AM46 °FClear.7 mph93%30.09 "Hg10 mi
6:00 AM46 °FClear.7 mph93%30.09 "Hg10 mi
Weather by CustomWeather, © 2015

See weather overviewHow to use our weather pages